| time (UTC) | temp F | wind direction | speed MPH | gust MPH | rain 1hr in | rain 24hr in | rain mn in | humidity % | barometer mb |
| 20260503200002 | 83 | 233 | 8.0 | 12.0 | 0.00 | 0.00 | 0.00 | 73 | 1013.0 |
| 20260503194601 | 84 | 233 | 6.0 | 12.0 | 0.00 | 0.00 | 0.00 | 74 | 1013.3 |
| 20260503194501 | 83 | 231 | 6.0 | 13.0 | 0.00 | 0.00 | 0.00 | 74 | 1013.3 |
| 20260503193052 | 83 | 219 | 7.0 | 15.0 | 0.00 | 0.00 | 0.00 | 74 | 1013.5 |
| 20260503191548 | 84 | 262 | 6.0 | 12.0 | 0.00 | 0.00 | 0.00 | 73 | 1013.7 |
| 20260503190137 | 82 | 208 | 8.0 | 11.0 | 0.00 | 0.00 | 0.00 | 74 | 1013.7 |
| 20260503184511 | 83 | 227 | 6.0 | 12.0 | 0.00 | 0.00 | 0.00 | 74 | 1013.7 |
| 20260503183101 | 83 | 238 | 7.0 | 12.0 | 0.00 | 0.00 | 0.00 | 74 | 1013.7 |
| 20260503181604 | 83 | 219 | 5.0 | 10.0 | 0.00 | 0.00 | 0.00 | 72 | 1013.7 |
| 20260503180148 | 83 | 218 | 4.0 | 10.0 | 0.00 | 0.00 | 0.00 | 71 | 1013.7 |
| 20260503174540 | 82 | 200 | 6.0 | 11.0 | 0.00 | 0.00 | 0.00 | 72 | 1013.9 |
| 20260503173042 | 83 | 158 | 6.0 | 11.0 | 0.00 | 0.00 | 0.00 | 67 | 1014.0 |
| 20260503171512 | 83 | 213 | 5.0 | 10.0 | 0.00 | 0.00 | 0.00 | 60 | 1014.0 |
| 20260503160142 | 84 | 199 | 0.0 | 3.0 | 0.00 | 0.00 | 0.00 | 58 | 1014.0 |
| 20260503140139 | 76 | 20 | 0.0 | 2.0 | 0.00 | 0.00 | 0.00 | 67 | 1013.4 |
| 20260503130147 | 72 | 20 | 0.0 | 0.0 | 0.00 | 0.00 | 0.00 | 64 | 1012.6 |
| 20260503120134 | 72 | 5 | 0.0 | 2.0 | 0.00 | 0.00 | 0.00 | 61 | 1011.8 |
| 20260503110142 | 72 | 5 | 0.0 | 2.0 | 0.00 | 0.00 | 0.00 | 60 | 1011.3 |
| 20260503100155 | 73 | 355 | 0.0 | 0.0 | 0.00 | 0.00 | 0.00 | 64 | 1011.0 |
| 20260503081549 | 76 | 323 | 0.0 | 2.0 | 0.00 | 0.00 | 0.00 | 64 | 1011.5 |
| 20260503080149 | 76 | 322 | 0.0 | 0.0 | 0.00 | 0.00 | 0.00 | 66 | 1011.8 |
| 20260503071559 | 77 | 322 | 0.0 | 0.0 | 0.00 | 0.00 | 0.00 | 66 | 1012.0 |
| 20260503070140 | 77 | 322 | 0.0 | 0.0 | 0.00 | 0.00 | 0.00 | 69 | 1011.9 |
| 20260503054546 | 77 | 322 | 0.0 | 2.0 | 0.00 | 0.00 | 0.00 | 70 | 1011.7 |
| 20260503053022 | 78 | 322 | 0.0 | 2.0 | 0.00 | 0.00 | 0.00 | 72 | 1011.9 |
| 20260503051557 | 78 | 322 | 0.0 | 2.0 | 0.00 | 0.00 | 0.00 | 71 | 1011.9 |
| 20260503050013 | 78 | 324 | 0.0 | 3.0 | 0.00 | 0.00 | 0.00 | 72 | 1011.9 |
| 20260503044609 | 78 | 310 | 1.0 | 3.0 | 0.00 | 0.00 | 0.00 | 71 | 1011.9 |
| 20260503043055 | 79 | 314 | 2.0 | 3.0 | 0.00 | 0.00 | 0.00 | 69 | 1012.1 |
| 20260503041545 | 79 | 313 | 0.0 | 4.0 | 0.00 | 0.00 | 0.00 | 68 | 1011.7 |
| 20260503040006 | 79 | 310 | 1.0 | 4.0 | 0.00 | 0.00 | 0.00 | 67 | 1011.5 |
| 20260503034502 | 79 | 277 | 1.0 | 6.0 | 0.00 | 0.00 | 0.00 | 66 | 1011.2 |
| 20260503033108 | 79 | 325 | 2.0 | 6.0 | 0.00 | 0.00 | 0.00 | 63 | 1010.9 |
| 20260503031604 | 80 | 281 | 1.0 | 6.0 | 0.00 | 0.00 | 0.00 | 61 | 1010.7 |
| 20260503030150 | 80 | 286 | 3.0 | 7.0 | 0.00 | 0.00 | 0.00 | 57 | 1010.5 |
| 20260503024536 | 79 | 309 | 1.0 | 9.0 | 0.00 | 0.00 | 0.00 | 63 | 1010.1 |
| 20260503023028 | 79 | 319 | 1.0 | 8.0 | 0.00 | 0.00 | 0.00 | 69 | 1009.9 |
| 20260503021606 | 79 | 281 | 3.0 | 8.0 | 0.00 | 0.00 | 0.00 | 71 | 1010.0 |
| 20260503020139 | 80 | 304 | 5.0 | 8.0 | 0.00 | 0.00 | 0.00 | 71 | 1009.8 |
| 20260503014520 | 80 | 304 | 4.0 | 11.0 | 0.00 | 0.00 | 0.00 | 68 | 1009.7 |
| 20260503013011 | 80 | 286 | 3.0 | 12.0 | 0.00 | 0.00 | 0.00 | 68 | 1009.6 |
| 20260503011506 | 81 | 281 | 6.0 | 13.0 | 0.00 | 0.00 | 0.00 | 67 | 1009.7 |
| 20260503010029 | 82 | 284 | 8.0 | 12.0 | 0.00 | 0.00 | 0.00 | 66 | 1009.7 |
| 20260503004509 | 83 | 292 | 4.0 | 11.0 | 0.00 | 0.00 | 0.00 | 65 | 1009.2 |
| 20260503003106 | 83 | 257 | 5.0 | 11.0 | 0.00 | 0.00 | 0.00 | 64 | 1008.9 |
| 20260503001544 | 83 | 258 | 5.0 | 10.0 | 0.00 | 0.00 | 0.00 | 64 | 1009.0 |
| 20260503000134 | 83 | 323 | 7.0 | 14.0 | 0.00 | 0.00 | 0.00 | 60 | 1008.9 |
| 20260502234518 | 84 | 279 | 7.0 | 13.0 | 0.00 | 0.00 | 0.00 | 54 | 1009.0 |
| 20260502233001 | 85 | 279 | 7.0 | 12.0 | 0.00 | 0.00 | 0.00 | 53 | 1008.9 |
| 20260502231602 | 85 | 302 | 6.0 | 10.0 | 0.00 | 0.00 | 0.00 | 51 | 1008.7 |
| 20260502230006 | 86 | 304 | 5.0 | 11.0 | 0.00 | 0.00 | 0.00 | 45 | 1008.8 |
| 20260502224505 | 86 | 262 | 5.0 | 10.0 | 0.00 | 0.00 | 0.00 | 45 | 1008.9 |
| 20260502223052 | 85 | 263 | 7.0 | 14.0 | 0.00 | 0.00 | 0.00 | 48 | 1008.8 |
| 20260502221545 | 86 | 275 | 5.0 | 14.0 | 0.00 | 0.00 | 0.00 | 52 | 1009.0 |
| 20260502220133 | 86 | 258 | 8.0 | 14.0 | 0.00 | 0.00 | 0.00 | 54 | 1009.4 |
| 20260502214522 | 86 | 298 | 7.0 | 13.0 | 0.00 | 0.00 | 0.00 | 54 | 1009.6 |
| 20260502213100 | 85 | 249 | 7.0 | 14.0 | 0.00 | 0.00 | 0.00 | 53 | 1009.8 |
| 20260502211554 | 86 | 259 | 6.0 | 11.0 | 0.00 | 0.00 | 0.00 | 54 | 1009.9 |
| 20260502210146 | 87 | 225 | 5.0 | 10.0 | 0.00 | 0.00 | 0.00 | 56 | 1009.9 |
| 20260502204539 | 87 | 275 | 6.0 | 13.0 | 0.00 | 0.00 | 0.00 | 49 | 1010.2 |
| 20260502203022 | 87 | 231 | 6.0 | 12.0 | 0.00 | 0.00 | 0.00 | 41 | 1010.5 |
| 20260502201502 | 87 | 252 | 6.0 | 12.0 | 0.00 | 0.00 | 0.00 | 46 | 1010.7 |